Погода Улан-Удэ

Погода Улан-Удэ : погода сейчас, прогноз погоды и архив. Всё, что Вы хотите узнать о погоде Улан-Удэ!

Поиск расширенной информации на нашем сайте:

Другие новости

Новости СМИ2

Главная страница сайта

Новости сайта

03.07.2017

Напоминаем, что на нашем специализированном сайте Метеоцентр.Азия вы можете получить высокодетализированные автоматические прогнозы погоды по пунктам России, СНГ и мира в авиационном формате (включающие направление и скорость ветра, видимость, явления погоды, количество и форму облачности, нижнюю и верхнюю границу облачности).

Рекомендуем: Сравнить цены на мойку.

Погода Улан-Удэ - сегодня

Время (UTC), дата Ветер
(°,м/с) 
Видим.   Явления Облачность Т
(°С)
Тd
(°С)
f(%) Тe
(°С)
Pmin
(гПа)
dP
(гПа)
Po
(мм)
O2
(г/м3)
Тmin Tmax R s Состояние
почвы
00 17.10.17 110 (В) 4{12}  20000 м  дым  8/0 верхняя 
[Ci sp]
-4.7 -11.5 59 -8  1025.1  0.3  720  296  -4.8         
03 17.10.17 130 (ЮВ) 20000 м  дым  10/3 1000 м средняя, верхняя 
[Sc|As trans|Ci sp]
-0.3 -10.5 46 -1  1023.5  -0.4  720  291           
06 17.10.17 260 (З) 20000 м  дым  1/0 средняя 
[Ac trans]
+5.8 -9 34 +7  1021.1  -1  719  285           
09 17.10.17 280 (З) 20000 м  дым  3/0 средняя 
[Ac lent]
+7.2 -8.8 31 +8  1021.1  0.3  720  283           
12 17.10.17 180 (Ю) 20000 м    1/0 верхняя 
[Ci fib]
+0.4 -9.5 47 +1  1024.7  1.9  721  291    +7.7       
15 17.10.17 300 (СЗ) 20000 м  дым  8/0 средняя, верхняя 
[As trans|Ci fib]
-3 -9.1 63 -3  1026.4  0.8  722  295           
18 17.10.17 270 (З) 20000 м    10/8 1000 м верхняя 
[Sc|Cs]
-4.3 -9.1 69 -4  1027.1  0.8  722  296           
21 17.10.17 310 (СЗ) 20000 м  {снег}  4/4 1000 м 
[Sc]
-4.5 -7.5 80 -4  1027.2  722  297           
00 18.10.17 260 (З) 20000 м  дым{снег}  8/8 1000 м 
[Sc]
-4.8 -7.5 81 -4  1028.1  0.7  723  297  -5.6    0.0     
03 18.10.17 230 (ЮЗ) 20000 м  дым  1/1 1000 м 
[Sc]
+5.1 -2.4 58 +4  1026  0.3  723  286           
06 18.10.17 350 (С) 20000 м    8/8 1000 м 
[Sc]
+9.2 -2.3 44 +9  1023.5  -1.5  722  281           
09 18.10.17 340 (С) 20000 м    3/3 1000 м 
[Sc]
+9.2 -2.6 43 +9  1022.2  -1.2  721  281           
12 18.10.17 200 (Ю) 20000 м    ясно 
+2.1 -3.4 67 +3  1023.5  -0.3  721  288    +10.2       
15 18.10.17 120 (ЮВ) 20000 м    ясно 
-1.4 -5.2 75 -1  1023.7  -0.6  720  292           
18 18.10.17 090 (В) 20000 м    ясно 
-4 -6.4 83 -5  1023  -1.3  719  295           
21 18.10.17 090 (В) 20000 м    ясно 
-5.5 -7.5 86 -7  1022.1  -1.2  718  296           
00 19.10.17 220 (ЮЗ) 1000 м  дымка  ясно 
-9.3 -10.7 90 -9  1022.6  -0.4  718  300  -9.3         
03 19.10.17 260 (З) 4000 м  дымка  ясно 
-1.8 -4.4 82 -3  1020.4  -0.3  718  292           
06 19.10.17 260 (З) 20000 м  дым  ясно 
+8.2 -1.5 50 +8  1016.3  -1.6  716  280           
09 19.10.17 340 (С) 20000 м    3/1 1000 м верхняя 
[Cu hum|Ci fib]
+7.8 -2.7 47 +7  1017.5  717  281           
12 19.10.17 310 (СЗ) 20000 м    ясно 
+3.7 -4.5 55 +3  1020.9  2.3  719  286    +9.9       
15 19.10.17 220 (ЮЗ) 20000 м    ясно 
-1.4 -6 71 -2  1024  1.8  720  292           
18 19.10.17 160 (Ю) 20000 м    ясно 
-4.7 -6.5 87 -4  1025.7  0.8  721  296           
21 19.10.17 330 (СЗ) 20000 м    ясно 
-5.9 -7.1 91 -6  1026.9  0.8  722  298           
00 20.10.17 тихо ()   4000 м  дымка  ясно 
-7.6 -8.9 90 -8  1028.4  722  300  -8.5         
Время (UTC), дата Ветер
(°,м/с) 
Видим.   Явления Облачность Т
(°С)
Тd
(°С)
f(%) Тe
(°С)
Pmin
(гПа)
dP
(гПа)
Po
(мм)
O2
(г/м3)
Тmin Tmax R s Состояние
почвы

Для получения пояснительной информации подведите курсор к названию столбца.

ПОГОДА Улан-Удэ - архив

Всё, что Вы хотите узнать о погоде Улан-Удэ - удобно и подробно!

Выберите нужную дату (начиная с 1 января 2015* года) и нажмите кнопку "Найти".
Будут отображены архивные сводки погоды по пункту Улан-Удэ, начиная с указанной даты.


Отображать данные в формате CSV (для использования в таблицах Excel)


Внимание! Наш архив погоды предназначен исключительно для личного некоммерческого использования в познавательных целях. Если Вам необходимы официальные справки о состоянии погоды (для производственных, юридических, коммерческих и т.п. целей), обращайтесь в органы Росгидромета.

*Примечание: данная дата относится к архиву по метеостанциям СССР (Россия, СНГ, Балтия).
Архив по метеостанциям Зарубежной Европы и Азии (кроме Китая) хранится 10 дней, по другим регионам земного шара (Китай, Африка, Америка, Австралия, Океания) - 1 день.

Улан-Удэ - район местоположения метеостанции


Название, широта, долгота, высота метеостанции:
Улан-Удэ (город) 51.8°ш. 107.5°д. 530 м над ур. моря [Российская Федерация]

Дополнительная информация

В oтличие oт бoльшинства пoгoдных сайтoв мы публикуем пoдрoбную метеoинфoрмацию в детальнoм прoфессиoнальнoм фoрмате.

Характеристики температуры и влажнoсти вoздуха измеряются на высoте 2 м в тени вдали oт зданий и деревьев.
Скoрoсть ветра измеряется на высoте 10 м (на урoвне рoста челoвека скoрoсть ветра ниже в 1.5-2 раза). Если метеoстанция нахoдится в гoрoде или в лесу, тo скoрoсть ветра занижена на 2-4 м/с пo сравнению с oткрытым местoм. Скoрoсть ветра над акватoриями крупных рек и oзёр, а также на вершинах хoлмoв на 2-5 м/с выше, чем в oбычных услoвиях.
Атмoсфернoе давление в разных тoчках местнoсти мoжет значительнo oтличаться oт давления на метеoстанции, в зависимoсти oт услoвий рельефа (при пoдъёме на 10 м давление пoнижается примернo на 1 мм рт.ст.).